#timestamp,LO_Frequency,Hit,StdDev 
1620104415.1,286046996.9,N
1620104435.8,286047000.6,N
1620104455.7,286046999.1,N
1620104475.5,286046999.8,N
1620104495.4,286047000.2,N
1620104515.2,286047000.3,N
1620104535.0,286047002.3,N
1620104535.9,286047002.3,N
1620104555.8,286047000.2,N
1620104575.6,286047002.4,N
1620104595.5,286047002.0,N
1620104615.3,286047000.6,N
1620104635.1,286046999.8,N
1620104655.9,286046999.7,N
1620104675.7,286047001.4,N
1620104695.5,286047003.2,N
1620104715.4,286047006.0,Y
1620104735.2,286046999.7,P
1620104755.1,286047002.8,P
1620104756.0,286047002.8,N
1620104775.8,286047002.5,N
1620104795.6,286047003.7,N
1620104815.5,286047002.5,N
1620104835.3,286047000.4,N
1620104855.1,286046999.3,N
1620104875.9,286047000.3,N
1620104895.7,286047001.2,N
1620104915.6,286047002.6,N
1620104935.4,286047000.6,N
1620104955.2,286046999.4,N
1620104975.1,286046999.0,N
1620104976.0,286046999.0,N
1620104995.8,286047000.6,N
1620105015.7,286047001.6,N
1620105035.5,286047003.8,N
1620105055.3,286047002.2,N
1620105075.2,286047001.5,N
1620105095.0,286046998.5,N
1620105095.9,286046998.5,N
1620105115.7,286047001.2,N
1620105135.6,286047001.2,N
1620105155.4,286046999.9,N
1620105175.3,286046999.7,N
1620105195.1,286047000.5,N
1620105196.0,286047000.5,N
1620105215.8,286047000.9,N
1620105235.7,286046996.7,N
1620105255.5,286046997.2,N
1620105275.3,286047000.1,N
1620105295.2,286047004.1,N
1620105315.0,286047003.6,N
1620105315.9,286047003.6,N
1620105335.8,286047002.4,N
1620105355.6,286047000.8,N
1620105375.4,286047002.5,N
1620105395.3,286047002.2,N
1620105415.1,286047000.5,N
1620105435.9,286047001.2,N
1620105455.7,286046996.8,N
1620105475.5,286046998.7,N
1620105495.4,286046998.2,N
1620105515.2,286046998.1,N
1620105535.0,286047001.1,N
1620105536.0,286047001.1,N
1620105555.8,286046997.6,N
1620105575.6,286046998.2,N
1620105595.5,286047002.3,N
1620105615.3,286047002.3,N
1620105635.1,286047000.1,N
1620105655.9,286046998.1,N
1620105675.7,286047001.0,N
1620105695.6,286047002.1,N
1620105715.4,286047003.2,N
1620105735.2,286047004.4,N
1620105755.1,286047002.2,N
1620105756.0,286047002.2,N
1620105775.8,286047004.4,N
1620105795.7,286047004.3,N
1620105815.5,286047000.9,N
1620105835.3,286046997.0,N
1620105855.2,286046994.9,N
1620105875.0,286046994.9,N
1620105875.9,286046994.9,N
1620105895.7,286046998.9,N
1620105915.6,286047000.2,N
1620105935.4,286046999.5,N
1620105955.3,286046997.6,N
1620105975.1,286046995.2,N
1620105976.0,286046995.2,N
1620105995.8,286046995.8,N
1620106015.7,286046995.6,N
1620106035.5,286046999.5,N
1620106055.3,286047000.4,N
1620106075.2,286046997.3,N
1620106095.0,286046998.2,N
1620106095.9,286046998.2,N
1620106115.8,286047000.7,N
1620106135.6,286047000.5,N
1620106155.4,286047000.2,N
1620106175.3,286047002.2,N
1620106195.1,286046998.2,N
1620106215.8,286046998.1,N
1620106235.7,286046998.5,N
1620106255.5,286046997.1,N
1620106275.4,286046994.9,N
1620106295.2,286046995.1,N
1620106315.0,286046995.7,N
1620106316.0,286046995.7,N
1620106335.8,286046999.4,N
1620106355.6,286046999.2,N
1620106375.5,286046997.7,N
1620106395.3,286046996.3,N
1620106415.1,286046993.9,Y
1620106435.9,286046995.8,P
1620106455.7,286046998.0,N
1620106475.6,286046997.3,N
1620106495.4,286046999.2,N
1620106515.2,286046998.4,N
1620106535.1,286047002.8,N
1620106536.0,286047002.8,N
1620106555.8,286046999.7,N
1620106575.7,286046999.7,N
1620106595.5,286047003.3,N
1620106615.3,286047001.7,N
1620106635.2,286047004.2,N
1620106655.9,286047002.0,N
1620106675.7,286047000.3,N
1620106695.6,286046998.4,N
1620106715.4,286046998.2,N
1620106735.3,286046996.8,N
1620106755.1,286046999.6,N
1620106756.0,286046999.6,N
1620106775.8,286046998.6,N
1620106795.7,286047002.5,N
1620106815.5,286046999.9,N
1620106835.3,286047000.8,N
1620106855.2,286047000.8,N
1620106875.0,286047000.9,N
1620106875.9,286047000.9,N
1620106895.8,286046999.3,N
1620106915.6,286046998.6,N
1620106935.4,286046999.0,N
1620106955.3,286046996.7,N
1620106975.1,286046999.3,N
1620106995.9,286047001.1,N
1620107015.7,286047000.8,N
1620107035.5,286047000.4,N
1620107055.4,286046998.4,N
1620107075.2,286047002.8,N
1620107095.0,286047001.0,N
1620107095.9,286047001.0,N
1620107115.8,286046998.4,N
1620107135.6,286046998.6,N
1620107155.5,286046999.7,N
1620107175.3,286046999.9,N
1620107195.1,286047002.4,N
1620107215.9,286046999.0,N
1620107235.7,286046997.6,N
1620107255.5,286046999.1,N
1620107275.4,286047000.6,N
1620107295.2,286047003.8,N
1620107315.1,286047001.9,N
1620107316.0,286047001.9,N
1620107335.8,286046998.5,N
1620107355.6,286046998.8,N
1620107375.5,286046999.0,N
1620107395.3,286046997.3,N
1620107415.1,286046995.8,N
1620107435.9,286046996.8,N
1620107455.7,286046998.9,N
1620107475.6,286046997.0,N
1620107495.4,286046996.9,N
1620107515.2,286046997.8,N
1620107535.1,286046997.7,N
1620107536.0,286046997.7,N
1620107555.8,286046997.2,N
1620107575.6,286046996.9,N
1620107595.5,286047001.0,N
1620107615.3,286046998.5,N
1620107635.2,286047001.5,N
1620107655.9,286047002.0,N
1620107675.7,286047002.1,N
1620107695.6,286047000.5,N
1620107715.4,286047001.3,N
1620107735.2,286047000.1,N
1620107755.1,286047002.3,N
1620107756.0,286047002.3,N
1620107775.8,286047001.5,N
1620107795.7,286047002.4,N
1620107815.5,286047003.8,N
1620107835.3,286047004.3,N
1620107855.2,286047001.9,N
1620107875.0,286047002.0,N
1620107895.9,286047002.0,N
1620107915.7,286047002.5,N
1620107935.5,286047003.9,N
1620107955.4,286047004.0,N
1620108005.3,286046998.3,E
